Location: Bruneau Dunes Observatory
(42.9024°N, 115.6902°W)
Time: 03:01:09
(UTC-07:00)

Daily predictions for brighter satellites

Satellite Brightness Start Highest point End
(mag) Time Altitude Azimuth Time Altitude Azimuth Time Altitude Azimuth
USA 229 DEB 4.5 04:38:23 49° ENE 04:38:23 49° ENE 04:44:54 10° ESE
USA 229 4.5 04:38:27 49° ENE 04:38:27 49° ENE 04:44:59 10° ESE
Cosmos 2237 Rocket 4.0 05:04:42 22° SSE 05:04:42 22° SSE 05:06:35 10° SSE
SL-16 R/B 3.1 05:04:44 44° NE 05:04:53 45° ENE 05:10:18 10° SE
Cosmos 2297 Rocket 2.8 05:15:15 52° NE 05:15:15 52° NE 05:19:33 10° NNE
COSMO-SKYMED 1 4.2 05:12:45 10° SE 05:16:35 32° ENE 05:16:41 32° ENE
Cosmos 2227 Rocket 3.1 05:28:45 37° N 05:28:45 37° N 05:32:09 10° NNE
USA 234 4.2 05:22:17 10° E 05:28:13 38° NNE 05:30:21 30° NNW
Cosmos 1816 Rocket 4.4 05:33:32 10° N 05:39:54 87° E 05:46:10 10° S
Tsikada Rocket 3.9 05:49:34 35° NNW 05:52:16 63° W 05:58:28 10° S
Cosmos 2082 4.2 05:56:44 41° NNW 05:56:44 41° NNW 06:01:13 10° NNE
CZ-4 R/B 4.5 05:54:17 10° NE 05:56:52 16° E 05:59:28 10° SE
SeaSat 1 3.9 05:59:54 10° N 06:02:07 22° NNW 06:02:07 22° NNW
SKYMED 2 3.4 06:00:14 10° S 06:04:34 79° WSW 06:05:21 58° NNW
Cosmos 968 Rocket 3.4 06:02:43 10° SSW 06:07:59 89° WNW 06:13:18 10° NNE
Cosmos 1603 4.3 06:04:10 14° NNW 06:08:56 53° ENE 06:14:26 10° SE
NOAA 6 4.0 06:09:17 10° N 06:14:24 59° WNW 06:19:29 10° SSW
Cosmos 1328 3.6 06:16:15 55° NW 06:16:55 68° W 06:20:52 10° S
Cosmos 773 Rocket 4.4 06:12:46 12° NNW 06:17:41 66° ENE 06:22:56 10° SSE
Cosmos 1725 Rocket 4.4 06:14:39 23° SW 06:17:57 39° WNW 06:23:48 10° N
SL-24 R/B 4.4 06:14:01 10° N 06:18:43 66° WNW 06:24:16 10° SSW
ISS -3.1 06:21:28 54° SSW 06:21:28 54° SSW 06:24:26 10° SE
Cosmos 304 Rocket 3.9 06:22:03 40° WNW 06:23:07 48° WSW 06:27:41 10° S
Cosmos 2221 3.0 06:22:01 10° S 06:26:18 63° E 06:30:34 10° NNE
USA 229 DEB 4.2 06:25:53 28° WNW 06:28:47 40° WSW 06:35:23 10° S
USA 229 4.2 06:25:56 28° WNW 06:28:53 40° WSW 06:35:30 10° S
Genesis I 3.4 06:28:50 27° NNW 06:30:50 69° NE 06:34:44 10° SE
Cosmos 1072 Rocket 4.5 06:25:50 10° S 06:32:01 86° E 06:38:11 10° N
Cosmos 2058 2.8 06:28:23 10° N 06:32:31 82° W 06:36:39 10° S
CSL-04 Rocket 3.6 06:29:33 10° NNE 06:34:53 85° ESE 06:40:10 10° SSW
Cosmos 2227 4.2 06:32:46 10° SSW 06:38:23 86° ESE 06:44:03 10° NNE
Cosmos 1777 Rocket 3.9 06:36:41 10° SSW 06:41:55 85° WNW 06:47:09 10° NNE
NOSS 3-1 (A) 4.1 06:35:48 13° NW 06:42:47 90° WSW 06:51:12 10° SSE
SL-8 R/B 3.8 06:41:56 25° WNW 06:44:41 71° NNE 06:49:28 10° ESE
Cosmos 1703 3.3 06:42:03 10° N 06:45:59 82° E 06:49:55 10° S
PSLV R/B 4.3 06:44:07 18° SW 06:46:17 40° SSE 06:49:28 10° E
CSL-04 DEB 4.5 06:42:16 10° NNE 06:46:42 82° WNW 06:51:01 10° SSW
SL-16 R/B 3.1 06:46:41 22° WNW 06:48:46 28° WSW 06:53:28 10° SSW
ATLAS 2AS CENTAUR R/B 4.0 06:43:45 10° NNW 06:51:24 42° NE 06:58:38 10° ESE
Cosmos 1842 Rocket 4.5 06:48:31 10° SW 06:52:09 26° WNW 06:55:49 10° NNW
COSMO-SKYMED 1 3.7 06:49:15 10° SSW 06:52:46 24° W 06:53:55 21° WNW
ERBS 2.6 06:51:26 27° WNW 06:52:57 52° SW 06:56:17 10° SSE
Helios 1B rocket 3.5 06:50:39 10° SE 06:54:35 46° ENE 06:58:31 10° N
Cosmos 2151 3.6 06:52:46 14° NNW 06:55:55 32° W 06:59:41 10° SSW
Meteor 1-4 Rocket 4.0 06:57:30 20° NW 06:57:30 20° NW 06:59:37 10° NNW
Cosmos 1356 Rocket 3.3 06:52:49 10° N 06:56:56 85° W 07:01:04 10° S
IDEFIX/ARIANE 42P 2.9 06:51:41 10° NNE 06:56:58 71° ESE 07:02:13 10° S
Cosmos 2297 Rocket 3.5 06:57:07 18° WNW 06:58:34 20° NW 07:02:38 10° N
Cosmos 1340 Rocket 3.2 06:55:44 11° NNW 06:59:17 39° W 07:02:58 10° SSW
Cosmos 1805 Rocket 3.5 06:56:15 10° NNW 07:00:40 69° W 07:05:00 10° S
Cosmos 1271 Rocket 3.3 06:58:48 10° SW 07:02:17 33° WNW 07:05:45 10° N
Meteor 1-28 Rocket 4.3 07:00:51 10° SSW 07:03:54 23° W 07:05:53 16° NW
TELKOM 3 2.9 07:02:47 20° WSW 07:04:21 63° NNW 07:06:30 10° NE
CZ-3 Stage 3 4.1 07:01:06 10° SW 07:05:54 30° S 07:22:02 10° ESE
Meteor 1-29 4.2 07:03:14 10° SE 07:06:33 43° ENE 07:09:55 10° N
USA 234 3.3 07:04:14 10° SE 07:10:49 87° SW 07:17:26 10° NW
Cosmos 2227 Rocket 3.9 07:10:38 12° NW 07:11:41 13° NW 07:14:12 10° NNW
Cosmos 923 Rocket 4.1 07:09:19 10° NNW 07:14:27 58° WSW 07:19:35 10° S
ATLAS CENTAUR R/B 4.3 07:11:00 10° NNW 07:14:47 23° NNE 07:22:39 10° E
Cosmos 1484 Rocket 4.1 07:11:01 10° NNE 07:14:54 46° E 07:18:45 10° S
SJ-12 3.9 07:12:06 10° N 07:16:09 63° WNW 07:20:10 10° SSW
Ariane Rocket 3.6 07:11:54 10° N 07:16:28 34° WNW 07:21:00 10° SW
Cosmos 1626 2.2 07:12:48 10° NNW 07:16:29 53° W 07:20:06 10° S
Cosmos 292 Rocket 3.9 07:14:09 10° NNW 07:18:51 58° WSW 07:23:33 10° S
Cosmos 1680 Rocket 3.6 07:18:04 10° NNW 07:23:19 64° WSW 07:28:34 10° S
Sich 1 3.1 07:21:20 10° NNW 07:25:37 56° W 07:29:51 10° S
Cosmos 2034 Rocket 4.1 07:20:45 10° SSW 07:26:46 54° WNW 07:32:53 10° N
IRS-1A Rocket 4.5 07:21:11 10° N 07:26:56 55° WNW 07:32:35 10° SW
Cosmos 1633 Rocket 3.1 07:23:43 10° NNW 07:28:02 61° W 07:32:17 10° S
Cosmos 389 Rocket 2.5 07:24:29 10° SSW 07:28:07 71° W 07:31:49 10° N
Cosmos 1898 Rocket 4.5 07:23:13 10° S 07:28:17 53° ESE 07:33:27 10° NNE
SMAP 3.0 07:23:46 10° N 07:28:24 65° WNW 07:33:00 10° SSW
Tiangong 2 3.3 07:27:26 10° SSW 07:30:05 25° SSE 07:32:45 10° E
Cosmos 1943 3.2 07:26:13 10° NNW 07:31:56 73° WSW 07:37:35 10° SSE
CZ-4 R/B 1.8 07:28:16 10° N 07:32:05 41° WNW 07:35:56 10° SW
Cosmos 1328 Rocket 3.6 07:28:16 10° S 07:32:36 90° W 07:36:59 10° N
CZ-2C R/B 2.4 07:29:00 10° N 07:33:28 50° WNW 07:37:51 10° SSW
Nadezhda 4 Rocket 4.1 07:27:19 10° NNW 07:33:36 64° W 07:39:47 10° S
Iridium 4 Rocket 3.7 07:31:01 10° N 07:35:14 60° E 07:39:42 10° SSE
Cosmos 2344 3.9 07:27:52 10° SSW 07:35:31 81° ESE 07:44:11 10° NE
Cosmos 1515 Rocket 3.8 07:34:38 10° S 07:39:02 79° E 07:43:29 10° N
